BAW30DG EGLL-LFPG

Flight info

Callsign BAW30DG
Flight time 0h 39m
Altitude 25000
Route MODMI M185 MID UL612 BOGNA DCT HARDY UM605 BIBAX
Aircraft A20N/M-SDE2E3FGHIRWXY/LB1

Departure

Time 2026-05-08 14:07
Airport London Heathrow Airport (EGLL)

Arrival

Time 2026-05-08 14:46
Airport Charles de Gaulle International Airport (LFPG)
Time Latitude Longitude Altitude Speed Heading
2026-05-08 13:40 51.47271 -0.48581 85 ft 0 kts 270°
2026-05-08 13:41 51.47270 -0.48589 86 ft 0 kts 270°
2026-05-08 13:58 51.47271 -0.48561 92 ft 4 kts 270°
2026-05-08 13:58 51.47271 -0.48526 87 ft 4 kts 266°
2026-05-08 13:58 51.47277 -0.48487 87 ft 4 kts 220°
2026-05-08 13:58 51.47298 -0.48476 86 ft 2 kts 180°
2026-05-08 13:59 51.47300 -0.48476 86 ft 1 kts 180°
2026-05-08 14:00 51.47297 -0.48476 84 ft 2 kts 180°
2026-05-08 14:01 51.47273 -0.48475 84 ft 5 kts 178°
2026-05-08 14:01 51.47226 -0.48474 84 ft 8 kts 180°
2026-05-08 14:01 51.47158 -0.48475 84 ft 11 kts 180°
2026-05-08 14:01 51.47071 -0.48473 84 ft 14 kts 179°
2026-05-08 14:02 51.46967 -0.48472 86 ft 16 kts 180°
2026-05-08 14:02 51.46847 -0.48470 87 ft 18 kts 179°
2026-05-08 14:02 51.46725 -0.48469 85 ft 14 kts 180°
2026-05-08 14:02 51.46655 -0.48546 90 ft 13 kts 257°
2026-05-08 14:03 51.46651 -0.48665 86 ft 0 kts 270°
2026-05-08 14:03 51.46651 -0.48675 86 ft 3 kts 270°
2026-05-08 14:03 51.46646 -0.48730 88 ft 7 kts 247°
2026-05-08 14:04 51.46622 -0.48761 89 ft 2 kts 189°
2026-05-08 14:04 51.46600 -0.48769 88 ft 0 kts 197°
2026-05-08 14:04 51.46597 -0.48770 87 ft 0 kts 197°
2026-05-08 14:05 51.46583 -0.48777 85 ft 4 kts 196°
2026-05-08 14:05 51.46539 -0.48790 84 ft 8 kts 176°
2026-05-08 14:05 51.46490 -0.48756 86 ft 8 kts 133°
2026-05-08 14:05 51.46477 -0.48667 89 ft 10 kts 89°
2026-05-08 14:06 51.46477 -0.48621 88 ft 0 kts 89°
2026-05-08 14:06 51.46477 -0.48619 88 ft 2 kts 89°
2026-05-08 14:06 51.46481 -0.48293 87 ft 63 kts 90°
2026-05-08 14:07 51.46485 -0.47257 84 ft 119 kts 90°
2026-05-08 14:07 51.46492 -0.45690 99 ft 159 kts 91°
2026-05-08 14:07 51.46468 -0.44013 791 ft 145 kts 95°
2026-05-08 14:07 51.46422 -0.42385 1395 ft 147 kts 92°
2026-05-08 14:08 51.46231 -0.40774 1857 ft 155 kts 115°
2026-05-08 14:08 51.45661 -0.39181 2177 ft 175 kts 125°
2026-05-08 14:08 51.44808 -0.37648 2556 ft 194 kts 144°
2026-05-08 14:08 51.43542 -0.36594 2975 ft 219 kts 156°
2026-05-08 14:09 51.42032 -0.35664 3583 ft 241 kts 160°
2026-05-08 14:09 51.40348 -0.35278 4405 ft 250 kts 186°
2026-05-08 14:09 51.38696 -0.36133 5305 ft 257 kts 207°
2026-05-08 14:09 51.37137 -0.37569 5746 ft 257 kts 208°
2026-05-08 14:10 51.35539 -0.38921 6022 ft 265 kts 206°
2026-05-08 14:10 51.33847 -0.40240 6425 ft 277 kts 205°
2026-05-08 14:10 51.32091 -0.41589 6369 ft 278 kts 206°
2026-05-08 14:10 51.30361 -0.42926 6805 ft 274 kts 206°
2026-05-08 14:11 51.28634 -0.44275 7603 ft 277 kts 206°
2026-05-08 14:11 51.26918 -0.45623 8811 ft 273 kts 206°
2026-05-08 14:11 51.25186 -0.46985 9699 ft 282 kts 206°
2026-05-08 14:11 51.23417 -0.48378 10608 ft 286 kts 206°
2026-05-08 14:12 51.21590 -0.49814 11179 ft 302 kts 206°
2026-05-08 14:12 51.19631 -0.51353 11534 ft 324 kts 206°
2026-05-08 14:12 51.17607 -0.52939 12287 ft 330 kts 206°
2026-05-08 14:12 51.15530 -0.54568 13126 ft 335 kts 206°
2026-05-08 14:13 51.13424 -0.56218 13962 ft 342 kts 206°
2026-05-08 14:13 51.11280 -0.57895 14744 ft 344 kts 206°
2026-05-08 14:13 51.09120 -0.59577 15593 ft 345 kts 205°
2026-05-08 14:13 51.06808 -0.60680 16222 ft 353 kts 187°
2026-05-08 14:14 51.04344 -0.60479 16904 ft 359 kts 168°
2026-05-08 14:14 51.02018 -0.58963 17569 ft 365 kts 149°
2026-05-08 14:14 50.99894 -0.56706 18313 ft 369 kts 147°
2026-05-08 14:14 50.97751 -0.54385 18897 ft 375 kts 147°
2026-05-08 14:15 50.95598 -0.52061 19405 ft 381 kts 147°
2026-05-08 14:15 50.93377 -0.49679 19961 ft 387 kts 147°
2026-05-08 14:15 50.91126 -0.47278 20491 ft 393 kts 147°
2026-05-08 14:15 50.88839 -0.44847 21028 ft 398 kts 147°
2026-05-08 14:16 50.86532 -0.42385 21545 ft 404 kts 147°
2026-05-08 14:16 50.84171 -0.39884 22057 ft 410 kts 147°
2026-05-08 14:16 50.81781 -0.37359 22583 ft 415 kts 147°
2026-05-08 14:16 50.79367 -0.34812 23113 ft 420 kts 147°
2026-05-08 14:17 50.76912 -0.32224 23616 ft 426 kts 147°
2026-05-08 14:17 50.74428 -0.29606 24078 ft 430 kts 147°
2026-05-08 14:17 50.72038 -0.26839 24556 ft 434 kts 139°
2026-05-08 14:17 50.69961 -0.23366 24919 ft 439 kts 128°
2026-05-08 14:18 50.68344 -0.19283 25052 ft 440 kts 116°
2026-05-08 14:18 50.67022 -0.14930 25078 ft 440 kts 115°
2026-05-08 14:18 50.65703 -0.10577 25079 ft 440 kts 115°
2026-05-08 14:18 50.64377 -0.06233 25074 ft 440 kts 115°
2026-05-08 14:19 50.63036 -0.01872 25081 ft 441 kts 116°
2026-05-08 14:19 50.61692 0.02474 25083 ft 443 kts 115°
2026-05-08 14:19 50.60339 0.06840 25083 ft 443 kts 115°
2026-05-08 14:19 50.58987 0.11193 25080 ft 442 kts 115°
2026-05-08 14:20 50.57633 0.15543 25080 ft 442 kts 115°
2026-05-08 14:20 50.56279 0.19889 25078 ft 443 kts 115°
2026-05-08 14:20 50.55380 0.22770 25078 ft 443 kts 115°
2026-05-08 14:20 50.54021 0.27118 25078 ft 443 kts 115°
2026-05-08 14:21 50.52661 0.31458 25081 ft 442 kts 115°
2026-05-08 14:21 50.51302 0.35791 25081 ft 443 kts 115°
2026-05-08 14:21 50.49938 0.40132 25078 ft 442 kts 115°
2026-05-08 14:21 50.48067 0.45767 25078 ft 443 kts 122°
2026-05-08 14:22 50.46240 0.49653 25079 ft 442 kts 131°
2026-05-08 14:22 50.44793 0.51984 25078 ft 442 kts 137°
2026-05-08 14:22 50.42417 0.55047 25077 ft 442 kts 142°
2026-05-08 14:22 50.40003 0.58067 25074 ft 446 kts 142°
2026-05-08 14:23 50.37611 0.61070 25078 ft 446 kts 141°
2026-05-08 14:23 50.35189 0.64113 25077 ft 445 kts 141°
2026-05-08 14:23 50.32775 0.67144 25069 ft 446 kts 141°
2026-05-08 14:23 50.30352 0.70183 25069 ft 446 kts 141°
2026-05-08 14:24 50.27930 0.73217 25071 ft 446 kts 142°
2026-05-08 14:24 50.25510 0.76243 25070 ft 446 kts 142°
2026-05-08 14:24 50.23087 0.79269 25067 ft 446 kts 142°
2026-05-08 14:24 50.20656 0.82299 25067 ft 446 kts 142°
2026-05-08 14:25 50.18231 0.85319 25061 ft 447 kts 142°
2026-05-08 14:25 50.15789 0.88357 25067 ft 449 kts 142°
2026-05-08 14:25 50.13347 0.91389 25064 ft 448 kts 142°
2026-05-08 14:25 50.10912 0.94407 25061 ft 445 kts 142°
2026-05-08 14:26 50.08485 0.97412 24835 ft 446 kts 142°
2026-05-08 14:26 50.06034 1.00278 24318 ft 447 kts 147°
2026-05-08 14:26 50.03337 1.02674 23627 ft 448 kts 155°
2026-05-08 14:26 50.00547 1.04745 23149 ft 439 kts 155°
2026-05-08 14:27 49.97822 1.06783 22690 ft 430 kts 155°
2026-05-08 14:27 49.95152 1.08787 22227 ft 422 kts 155°
2026-05-08 14:27 49.92528 1.10759 21779 ft 417 kts 155°
2026-05-08 14:27 49.89915 1.12720 21342 ft 413 kts 155°
2026-05-08 14:28 49.87350 1.14642 20906 ft 406 kts 155°
2026-05-08 14:28 49.84829 1.16530 20484 ft 400 kts 155°
2026-05-08 14:28 49.82328 1.18400 20064 ft 397 kts 155°
2026-05-08 14:28 49.79859 1.20245 19646 ft 390 kts 155°
2026-05-08 14:29 49.77426 1.22060 19232 ft 386 kts 155°
2026-05-08 14:29 49.75007 1.23865 18818 ft 382 kts 155°
2026-05-08 14:29 49.72631 1.25632 18420 ft 375 kts 155°
2026-05-08 14:29 49.70299 1.27365 17995 ft 370 kts 155°
2026-05-08 14:30 49.68007 1.29068 17602 ft 371 kts 155°
2026-05-08 14:30 49.65681 1.30795 17201 ft 370 kts 155°
2026-05-08 14:30 49.63372 1.32509 16805 ft 364 kts 155°
2026-05-08 14:30 49.61098 1.34193 16419 ft 362 kts 155°
2026-05-08 14:31 49.58825 1.35875 16027 ft 361 kts 155°
2026-05-08 14:31 49.56570 1.37537 15652 ft 359 kts 155°
2026-05-08 14:31 49.54327 1.39193 15270 ft 356 kts 155°
2026-05-08 14:32 49.49891 1.42468 14509 ft 353 kts 156°
2026-05-08 14:32 49.47682 1.44095 14129 ft 351 kts 155°
2026-05-08 14:32 49.45472 1.45719 13741 ft 350 kts 156°
2026-05-08 14:32 49.43293 1.47321 13353 ft 344 kts 156°
2026-05-08 14:33 49.41132 1.48904 13027 ft 343 kts 156°
2026-05-08 14:33 49.39007 1.50461 12918 ft 332 kts 156°
2026-05-08 14:33 49.36965 1.51958 12793 ft 319 kts 156°
2026-05-08 14:33 49.35010 1.53390 12643 ft 304 kts 156°
2026-05-08 14:34 49.33147 1.54752 12117 ft 298 kts 155°
2026-05-08 14:34 49.31376 1.56312 11487 ft 296 kts 139°
2026-05-08 14:34 49.30156 1.58790 11007 ft 289 kts 112°
2026-05-08 14:34 49.29756 1.61784 10720 ft 291 kts 95°
2026-05-08 14:35 49.29628 1.64905 10394 ft 292 kts 94°
2026-05-08 14:35 49.29504 1.67995 10079 ft 288 kts 94°
2026-05-08 14:35 49.29379 1.70999 9762 ft 283 kts 94°
2026-05-08 14:35 49.29017 1.73914 9462 ft 279 kts 114°
2026-05-08 14:36 49.27877 1.76332 9175 ft 285 kts 140°
2026-05-08 14:36 49.26172 1.77841 8870 ft 281 kts 156°
2026-05-08 14:36 49.24382 1.79039 8561 ft 282 kts 157°
2026-05-08 14:36 49.22579 1.80220 8260 ft 280 kts 157°
2026-05-08 14:37 49.20796 1.81395 7961 ft 279 kts 157°
2026-05-08 14:37 49.19018 1.82578 7666 ft 278 kts 156°
2026-05-08 14:37 49.17328 1.83975 7374 ft 276 kts 143°
2026-05-08 14:37 49.15946 1.86014 7072 ft 276 kts 127°
2026-05-08 14:38 49.14817 1.88366 6768 ft 274 kts 126°
2026-05-08 14:38 49.13688 1.90705 6474 ft 273 kts 126°
2026-05-08 14:38 49.12557 1.93029 6166 ft 271 kts 126°
2026-05-08 14:38 49.11451 1.95292 5884 ft 268 kts 126°
2026-05-08 14:39 49.10332 1.97579 5597 ft 268 kts 126°
2026-05-08 14:39 49.09215 1.99859 5305 ft 267 kts 126°
2026-05-08 14:39 49.08112 2.02109 5021 ft 264 kts 126°
2026-05-08 14:39 49.07005 2.04364 4723 ft 266 kts 126°
2026-05-08 14:40 49.05902 2.06607 4438 ft 262 kts 125°
2026-05-08 14:40 49.04815 2.08821 4119 ft 259 kts 125°
2026-05-08 14:40 49.03752 2.10983 3984 ft 248 kts 125°
2026-05-08 14:40 49.02747 2.13019 3968 ft 233 kts 125°
2026-05-08 14:41 49.01794 2.14953 3974 ft 230 kts 125°
2026-05-08 14:41 49.01033 2.17084 3975 ft 227 kts 106°
2026-05-08 14:41 49.00780 2.19455 3978 ft 229 kts 91°
2026-05-08 14:41 49.00817 2.21861 3972 ft 227 kts 85°
2026-05-08 14:42 49.00954 2.24265 3954 ft 227 kts 84°
2026-05-08 14:42 49.01083 2.26668 3717 ft 227 kts 85°
2026-05-08 14:42 49.01211 2.29064 3405 ft 226 kts 85°
2026-05-08 14:42 49.01335 2.31388 3099 ft 212 kts 85°
2026-05-08 14:43 49.01451 2.33543 2812 ft 197 kts 84°
2026-05-08 14:43 49.01558 2.35533 2562 ft 184 kts 84°
2026-05-08 14:43 49.01658 2.37395 2347 ft 169 kts 84°
2026-05-08 14:43 49.01750 2.39109 2127 ft 156 kts 84°
2026-05-08 14:44 49.01837 2.40709 1926 ft 145 kts 84°
2026-05-08 14:44 49.01914 2.42164 1736 ft 130 kts 84°
2026-05-08 14:44 49.01992 2.43589 1570 ft 142 kts 80°
2026-05-08 14:44 49.02046 2.45058 1345 ft 136 kts 79°
2026-05-08 14:45 49.02096 2.46495 1214 ft 139 kts 78°
2026-05-08 14:45 49.02198 2.47941 1082 ft 137 kts 75°
2026-05-08 14:45 49.02278 2.49390 891 ft 134 kts 82°
2026-05-08 14:45 49.02371 2.50788 639 ft 132 kts 83°
2026-05-08 14:46 49.02458 2.52189 447 ft 134 kts 79°
2026-05-08 14:46 49.02534 2.53605 367 ft 128 kts 83°
2026-05-08 14:46 49.02606 2.54795 356 ft 84 kts 85°
2026-05-08 14:46 49.02552 2.55351 357 ft 31 kts 111°
2026-05-08 14:47 49.02539 2.55404 358 ft 0 kts 110°
2026-05-08 14:47 49.02537 2.55413 360 ft 3 kts 110°
2026-05-08 14:47 49.02524 2.55458 357 ft 7 kts 114°
2026-05-08 14:48 49.02500 2.55537 361 ft 10 kts 114°
2026-05-08 14:48 49.02476 2.55648 362 ft 12 kts 102°
2026-05-08 14:48 49.02479 2.55791 360 ft 15 kts 81°
2026-05-08 14:48 49.02488 2.55958 354 ft 17 kts 85°
2026-05-08 14:49 49.02468 2.56134 356 ft 18 kts 136°
2026-05-08 14:49 49.02339 2.56175 357 ft 20 kts 174°
2026-05-08 14:49 49.02230 2.56292 363 ft 18 kts 157°
2026-05-08 14:49 49.02097 2.56316 361 ft 21 kts 174°
2026-05-08 14:50 49.02022 2.56464 354 ft 21 kts 85°
2026-05-08 14:50 49.02038 2.56687 354 ft 22 kts 86°
2026-05-08 14:50 49.02050 2.56925 354 ft 23 kts 85°
2026-05-08 14:50 49.02064 2.57177 360 ft 24 kts 85°
2026-05-08 14:51 49.02077 2.57438 362 ft 25 kts 85°
2026-05-08 14:51 49.02092 2.57709 357 ft 26 kts 92°
2026-05-08 14:51 49.02033 2.57964 359 ft 26 kts 127°
2026-05-08 14:51 49.01880 2.58110 356 ft 27 kts 168°
2026-05-08 14:52 49.01688 2.58142 355 ft 29 kts 176°
2026-05-08 14:52 49.01273 2.58199 354 ft 31 kts 172°
2026-05-08 14:52 49.01057 2.58223 354 ft 32 kts 175°
2026-05-08 14:53 49.00923 2.58404 356 ft 30 kts 85°
2026-05-08 14:53 49.00857 2.58652 358 ft 27 kts 155°
2026-05-08 14:53 49.00665 2.58701 354 ft 29 kts 175°
2026-05-08 14:53 49.00460 2.58730 362 ft 30 kts 173°
2026-05-08 14:54 49.00251 2.58768 354 ft 31 kts 177°
2026-05-08 14:54 49.00060 2.58746 359 ft 26 kts 220°
2026-05-08 14:54 49.00023 2.58504 354 ft 23 kts 263°
2026-05-08 14:54 49.00009 2.58246 358 ft 26 kts 266°
2026-05-08 14:55 48.99992 2.57967 357 ft 27 kts 265°
2026-05-08 14:55 48.99978 2.57666 356 ft 29 kts 265°
2026-05-08 14:55 48.99961 2.57345 358 ft 31 kts 265°
2026-05-08 14:55 48.99956 2.57039 355 ft 22 kts 301°
2026-05-08 14:56 49.00074 2.56984 354 ft 14 kts 355°
2026-05-08 14:56 49.00134 2.56883 358 ft 13 kts 264°
2026-05-08 14:56 49.00141 2.56756 357 ft 8 kts 299°
2026-05-08 14:56 49.00169 2.56743 357 ft 0 kts
2026-05-08 14:57 49.00174 2.56741 359 ft 3 kts 355°
2026-05-08 14:57 49.00196 2.56738 362 ft 0 kts 355°